Location: Vercelli
(45.3170°N, 8.4170°E)
Time: 10:23:04
(UTC+02:00)

ISS - Visible Passes

Search period start: 08 May 2021 00:00
Search period end: 18 May 2021 00:00
Orbit: 418 x 421 km, 51.6° (Epoch: 08 May)

Date Brightness Start Highest point End Pass type
(mag) Time Alt. Az. Time Alt. Az. Time Alt. Az.
08 May -2.2 02:49:24 36° NNE 02:49:24 36° NNE 02:51:53 10° NE visible
08 May -1.7 04:23:02 10° WNW 04:25:58 27° N 04:28:55 10° ENE visible
09 May -1.2 02:03:26 18° NE 02:03:26 18° NE 02:04:29 10° ENE visible
09 May -1.8 03:36:22 16° NW 03:38:23 27° N 03:41:21 10° NE visible
09 May -2.1 05:12:37 10° NW 05:15:47 35° NNE 05:18:56 10° E visible
10 May -2.0 02:50:23 29° NNW 02:50:48 30° N 02:53:50 10° NE visible
10 May -1.8 04:25:11 10° NW 04:28:13 30° N 04:31:16 10° ENE visible
11 May -1.6 02:04:21 27° NNE 02:04:21 27° NNE 02:06:23 10° NE visible
11 May -1.6 03:37:41 10° NW 03:40:39 27° N 03:43:37 10° ENE visible
11 May -3.2 05:14:32 10° WNW 05:17:53 62° NNE 05:21:15 10° ESE visible
12 May -1.0 01:18:16 15° NE 01:18:16 15° NE 01:18:58 10° NE visible
12 May -1.6 02:51:12 17° NW 02:53:03 26° N 02:55:59 10° ENE visible
12 May -2.6 04:27:08 10° NW 04:30:24 45° NNE 04:33:40 10° E visible
13 May -1.7 02:05:02 26° NNW 02:05:27 27° N 02:08:25 10° NE visible
13 May -2.1 03:39:42 10° NW 03:42:52 35° NNE 03:46:01 10° E visible
13 May -3.7 05:16:29 10° WNW 05:19:49 58° SW 05:23:09 10° SE visible
14 May -1.6 01:18:39 27° NNE 01:18:39 27° NNE 01:20:54 10° NE visible
14 May -1.8 02:52:15 10° NW 02:55:18 30° N 02:58:21 10° ENE visible
14 May -3.8 04:29:01 10° WNW 04:32:25 90° SW 04:35:48 10° ESE visible
14 May -3.8 22:50:01 10° SW 22:53:20 60° SSE 22:55:40 18° ENE visible
15 May -2.1 00:27:10 10° W 00:30:18 35° NNW 00:33:27 10° NE visible
15 May -1.6 02:04:45 10° NW 02:07:43 27° N 02:10:41 10° ENE visible
15 May -3.3 03:41:36 10° WNW 03:44:58 62° NNE 03:48:19 10° ESE visible
15 May -2.5 05:18:49 10° W 05:21:33 23° SW 05:24:16 10° SSE visible
15 May -3.3 22:02:50 10° SSW 22:05:58 37° SE 22:09:07 10° ENE visible
15 May -2.6 23:39:31 10° W 23:42:46 44° NNW 23:46:01 10° NE visible
16 May -1.5 01:17:11 10° WNW 01:20:07 26° N 01:23:03 10° ENE visible
16 May -2.6 02:54:11 10° NW 02:57:27 45° NNE 03:00:43 10° E visible
16 May -3.2 04:31:06 10° WNW 04:34:14 36° SW 04:37:22 10° SSE visible
16 May -3.2 22:51:55 10° WSW 22:55:15 60° NNW 22:58:37 10° ENE visible
17 May -1.6 00:29:33 10° WNW 00:32:31 27° N 00:35:28 10° NE visible
17 May -2.2 02:06:46 10° NW 02:09:55 35° NNE 02:13:04 10° E visible
17 May -3.8 03:43:32 10° WNW 03:46:53 58° SSW 03:50:11 10° SE visible
17 May -3.8 22:04:26 10° WSW 22:07:47 87° NNW 22:11:10 10° ENE visible
17 May -1.7 23:41:53 10° WNW 23:44:55 30° N 23:47:57 10° NE visible
